Regional Weather Roundup
Issued by NWS Albany, NY

Home | Current Version | Previous Version | Text Only | Print | Product List | Glossary On
Versions: 1 2 3 4 5 6 7 8 9 10 11 12 13 14 15 16 17 18 19 20 21 22 23 24 25 26 27 28 29 30 31 32 33 34 35 36 37 38 39 40 41 42 43 44 45 46 47 48 49 50
000
ASUS41 KALY 290110
RWRALY

NEW YORK STATE HOURLY WEATHER ROUNDUP
NATIONAL WEATHER SERVICE ALBANY NY
900 PM EDT MON JUL 28 2014

NOTE: "FAIR" INDICATES FEW OR NO CLOUDS BELOW 12,000 FEET WITH NO
SIGNIFICANT WEATHER AND/OR NO OBSTRUCTIONS TO VISIBILITY.

NYZ032-033-038>043-046>054-057>066-NYZ062>081-290200-
EAST


CITY           SKY/WX    TMP DP  RH WIND       PRES   REMARKS
ALBANY         MOCLDY    67  60  78 W13       29.60R
GLENS FALLS    RAIN      63  59  87 NW7       29.60R FOG
POUGHKEEPSIE   CLOUDY    72  62  71 SW8       29.59R
NEWBURGH       MOCLDY    68  64  88 W9        29.62R
MONTGOMERY     MOCLDY    68  60  75 W8        29.64R
WHITE PLAINS   PTCLDY    67  62  84 W9        29.62R
ISLIP          PTCLDY    76  57  51 W10G22    29.59R
NEW YORK CITY  PTCLDY    74  59  59 W18G25    29.62R
CENTRAL PARK   CLEAR     72  58  61 W14G23    29.66R
$$

NYZ005>009-017-018-044>046-055-056-290200-
CENTRAL


CITY           SKY/WX    TMP DP  RH WIND       PRES   REMARKS
FULTON         CLOUDY    60  56  86 W3        29.77R
SYRACUSE       CLOUDY    59  58  96 W7        29.76R
ROME           CLOUDY    60  56  86 W12       29.73R
ELMIRA         CLOUDY    60  57  89 NW7       29.80R
BINGHAMTON     LGT RAIN  57  56  96 NW10      29.77R FOG
MONTICELLO     MOCLDY    61  57  88 NW9G17    29.71R
$$

NYZ026>034-041>043-290200-
NORTH


CITY           SKY/WX    TMP DP  RH WIND       PRES   REMARKS
WATERTOWN      CLOUDY    61  55  81 CALM      29.74R
FORT DRUM      NOT AVBL
MASSENA        CLOUDY    61  59  93 W3        29.69R
SARANAC LAKE   LGT RAIN  56  54  93 NW6       29.67R FOG
PLATTSBURGH    LGT RAIN  60  58  92 NW15      29.62R
$$

NYZ001>004-010>016-019>021-290200-
WEST


CITY           SKY/WX    TMP DP  RH WIND       PRES   REMARKS
NIAGARA FALLS  MOCLDY    60  49  66 NW14      29.85R
BUFFALO        MOCLDY    61  48  62 NW15G22   29.84R
DUNKIRK        MOCLDY    63  51  65 NW14G24   29.86R
JAMESTOWN      CLOUDY    57  54  88 NW6       29.88R
WELLSVILLE     CLOUDY    58  53  84 NW8       29.87R
ROCHESTER      MOCLDY    61  59  93 SW6       29.81R
PENN YAN       CLOUDY    59  56  89 NW5       29.81R
$$

             KEY
       WCI = WIND CHILL INDEX
       VSB = VISIBILITY
       HX  = HEAT INDEX
$$


USA.gov is the U.S. government's official web portal to all federal, state and local government web resources and services.